Wheeler AAF, HI

8:20 AM HST on April 28, 2017 (GMT -1000)
Wheeler Army Air Field

Weather History for PHHI - December, 2012

Change the Weather History Date:

Friday, December 14, 2012

  Actual Average Record
Temperature  
Mean Temperature 70 °F -  
Max Temperature 75 °F 74 °F 81 °F (2015)
Min Temperature 66 °F 63 °F 60 °F (2004)
Cooling Degree Days 6    
Growing Degree Days 20 (Base 50)    
Moisture  
Dew Point 63 °F    
Average Humidity 80    
Maximum Humidity 94    
Minimum Humidity 60    
Precipitation  
Precipitation 0.17 in - - ()
Sea Level Pressure  
Sea Level Pressure 30.11 in    
Wind  
Wind Speed 6 mph (East)    
Max Wind Speed 21 mph    
Max Gust Speed 29 mph    
Visibility 8 miles    
Events Rain    
Averages and records for this station are not official NWS values.
T = Trace of Precipitation, MM = Missing Value Source: NWS Daily Summary

Daily Weather History Graph

Daily Weather History Graph

Search for Another Location

Airport or City:

Trip Planner

Search our weather history database for the weather conditions in past years. The results will help you decide how hot, cold, wet, or windy it might be!

Date:

Astronomy

Dec. 14, 2012 Rise Set
Actual Time 7:02 AM HST 5:52 PM HST
Civil Twilight 6:37 AM HST 6:16 PM HST
Nautical Twilight 6:10 AM HST 6:44 PM HST
Astronomical Twilight 5:42 AM HST 7:11 PM HST
Moon 8:23 AM HST (12/14) 7:49 PM HST (12/14)
Length of Visible Light 11h 38m
Length of Day
10h 50m
Waxing Crescent, 4% of the Moon is Illuminated
Dec 14
Waxing Crescent
Dec 19
First Quarter
Dec 28
Full
Jan 4
Last Quarter
Jan 11
New

Hourly Weather History & Observations

Time (HST) Temp. Dew Point Humidity Pressure Visibility Wind Dir Wind Speed Gust Speed Precip Events Conditions
12:01 AM 68.0 °F 64.4 °F 88% 30.13 in 9.0 mi Calm Calm - N/A Rain Light Rain
12:07 AM 68.0 °F 64.4 °F 88% 30.13 in 8.0 mi East 10.4 mph - N/A Rain Light Rain
12:25 AM 68.0 °F 64.4 °F 88% 30.12 in 10.0 mi Calm Calm - N/A   Light Drizzle
12:31 AM 68.0 °F 64.4 °F 88% 30.12 in 10.0 mi Calm Calm - N/A   Light Drizzle
12:41 AM 68.0 °F 64.4 °F 88% 30.12 in 4.0 mi East 17.3 mph 24.2 mph N/A Rain Light Rain
12:48 AM 68.0 °F 64.4 °F 88% 30.12 in 3.0 mi East 17.3 mph 28.8 mph N/A Rain Light Rain
12:54 AM 68.0 °F 64.4 °F 88% 30.12 in 4.0 mi East 8.1 mph 28.8 mph N/A Rain Light Rain
12:55 AM 67.6 °F 64.4 °F 89% 30.12 in 4.0 mi ENE 8.1 mph 28.8 mph 0.03 in Rain Light Rain
1:11 AM 68.0 °F 64.4 °F 88% 30.12 in 6.0 mi Variable 3.5 mph - N/A Rain Light Rain
1:16 AM 68.0 °F 64.4 °F 88% 30.12 in 4.0 mi Calm Calm - N/A Rain Light Rain
1:31 AM 66.2 °F 64.4 °F 94% 30.12 in 4.0 mi East 5.8 mph 17.3 mph N/A Rain Light Rain
1:32 AM 66.2 °F 64.4 °F 94% 30.12 in 4.0 mi ENE 5.8 mph 17.3 mph N/A Rain Light Rain
1:36 AM 66.2 °F 64.4 °F 94% 30.12 in 4.0 mi ESE 4.6 mph - N/A Rain Light Rain
1:39 AM 66.2 °F 64.4 °F 94% 30.12 in 5.0 mi Variable 3.5 mph - N/A Rain Light Rain
1:45 AM 68.0 °F 64.4 °F 88% 30.12 in 5.0 mi Calm Calm - N/A Rain Light Rain
1:47 AM 68.0 °F 64.4 °F 88% 30.12 in 5.0 mi Calm Calm - N/A Rain Light Rain
1:49 AM 68.0 °F 64.4 °F 88% 30.12 in 4.0 mi Calm Calm - N/A Rain Light Rain
1:50 AM 68.0 °F 64.4 °F 88% 30.12 in 4.0 mi SE 4.6 mph - N/A Rain Light Rain
1:55 AM 67.1 °F 64.0 °F 90% 30.10 in 4.0 mi WSW 5.8 mph - 0.06 in   Light Drizzle
1:57 AM 68.0 °F 64.4 °F 88% 30.10 in 5.0 mi West 5.8 mph - N/A Rain Light Rain
1:58 AM 68.0 °F 64.4 °F 88% 30.10 in 5.0 mi West 6.9 mph - N/A Rain Light Rain
1:59 AM 68.0 °F 64.4 °F 88% 30.10 in 5.0 mi West 6.9 mph - N/A Rain Light Rain
2:00 AM 68.0 °F 64.4 °F 88% 30.10 in 5.0 mi West 4.6 mph - N/A Rain Light Rain
2:07 AM 68.0 °F 64.4 °F 88% 30.10 in 5.0 mi ENE 4.6 mph - N/A Rain Light Rain
2:21 AM 68.0 °F 64.4 °F 88% 30.11 in 4.0 mi Calm Calm - N/A Rain Light Rain
2:23 AM 66.2 °F 64.4 °F 94% 30.10 in 4.0 mi Variable 5.8 mph - N/A Rain Light Rain
2:24 AM 66.2 °F 64.4 °F 94% 30.10 in 5.0 mi Variable 5.8 mph - N/A Rain Light Rain
2:25 AM 66.2 °F 64.4 °F 94% 30.10 in 5.0 mi Variable 4.6 mph - N/A Rain Light Rain
2:30 AM 66.2 °F 64.4 °F 94% 30.10 in 5.0 mi Variable 4.6 mph - N/A Rain Light Rain
2:38 AM 66.2 °F 64.4 °F 94% 30.10 in 6.0 mi Calm Calm - N/A Rain Light Rain
2:50 AM 66.2 °F 64.4 °F 94% 30.10 in 6.0 mi West 8.1 mph - N/A Rain Light Rain
2:55 AM 66.7 °F 63.7 °F 90% 30.10 in 6.0 mi WNW 6.9 mph - 0.05 in Rain Light Rain
3:15 AM 66.2 °F 62.6 °F 88% 30.09 in 7.0 mi West 9.2 mph - N/A Rain Light Rain
3:16 AM 66.2 °F 62.6 °F 88% 30.09 in 7.0 mi Variable 6.9 mph - N/A Rain Light Rain
3:19 AM 66.2 °F 62.6 °F 88% 30.10 in 9.0 mi NNE 10.4 mph 17.3 mph N/A Rain Light Rain
3:20 AM 66.2 °F 62.6 °F 88% 30.10 in 10.0 mi North 6.9 mph 17.3 mph N/A Rain Light Rain
3:28 AM 68.0 °F 62.6 °F 83% 30.09 in 10.0 mi Variable 4.6 mph - N/A Rain Light Rain
3:29 AM 68.0 °F 62.6 °F 83% 30.09 in 10.0 mi NW 3.5 mph - N/A Rain Light Rain
3:30 AM 68.0 °F 62.6 °F 83% 30.09 in 10.0 mi Calm Calm - N/A Rain Light Rain
3:55 AM 67.6 °F 62.8 °F 84% 30.09 in 9.0 mi NE 9.2 mph - 0.02 in Rain Light Rain
4:08 AM 68.0 °F 62.6 °F 83% 30.09 in 10.0 mi Variable 3.5 mph - N/A   Light Drizzle
4:09 AM 68.0 °F 62.6 °F 83% 30.09 in 10.0 mi ENE 4.6 mph - N/A   Light Drizzle
4:15 AM 68.0 °F 62.6 °F 83% 30.09 in 10.0 mi Calm Calm - N/A   Mostly Cloudy
4:21 AM 68.0 °F 62.6 °F 83% 30.08 in 10.0 mi WSW 3.5 mph - N/A   Mostly Cloudy
4:29 AM 66.2 °F 62.6 °F 88% 30.08 in 10.0 mi SW 3.5 mph - N/A   Mostly Cloudy
4:55 AM 68.9 °F 61.3 °F 77% 30.08 in 10.0 mi Calm Calm - 0.00 in   Overcast
5:48 AM 68.0 °F 60.8 °F 78% 30.09 in 10.0 mi Calm Calm - N/A   Light Drizzle
5:55 AM 68.5 °F 61.5 °F 78% 30.09 in 10.0 mi NE 5.8 mph - 0.00 in   Light Drizzle
6:02 AM 68.0 °F 60.8 °F 78% 30.09 in 10.0 mi Calm Calm - N/A   Overcast
6:52 AM 69.8 °F 60.8 °F 73% 30.09 in 10.0 mi East 9.2 mph - N/A   Overcast
6:55 AM 69.4 °F 60.6 °F 73% 30.10 in 10.0 mi East 5.8 mph - 0.00 in   Overcast
7:01 AM 69.8 °F 60.8 °F 73% 30.10 in 10.0 mi East 8.1 mph 17.3 mph N/A   Overcast
7:05 AM 69.8 °F 60.8 °F 73% 30.10 in 10.0 mi ESE 13.8 mph 17.3 mph N/A   Overcast
7:31 AM 69.8 °F 60.8 °F 73% 30.11 in 10.0 mi Variable 6.9 mph - N/A Rain Light Rain
7:40 AM 69.8 °F 60.8 °F 73% 30.11 in 10.0 mi Variable 3.5 mph - N/A   Overcast
7:50 AM 69.8 °F 60.8 °F 73% 30.12 in 10.0 mi Calm Calm - N/A   Overcast
7:51 AM 68.0 °F 60.8 °F 78% 30.12 in 10.0 mi Variable 3.5 mph - N/A   Overcast
7:52 AM 68.0 °F 60.8 °F 78% 30.12 in 10.0 mi Variable 4.6 mph - N/A Rain Light Rain
7:55 AM 69.1 °F 61.7 °F 77% 30.12 in 10.0 mi Variable 3.5 mph - 0.00 in   Light Drizzle
8:03 AM 69.8 °F 60.8 °F 73% 30.12 in 10.0 mi ESE 4.6 mph - N/A   Overcast
8:06 AM 69.8 °F 60.8 °F 73% 30.12 in 10.0 mi Variable 5.8 mph - N/A   Drizzle
8:12 AM 69.8 °F 60.8 °F 73% 30.12 in 10.0 mi Variable 4.6 mph - N/A   Light Drizzle
8:16 AM 69.8 °F 60.8 °F 73% 30.12 in 10.0 mi East 3.5 mph - N/A   Overcast
8:55 AM 71.6 °F 61.3 °F 70% 30.14 in 10.0 mi East 8.1 mph - 0.01 in   Mostly Cloudy
9:55 AM 71.4 °F 61.9 °F 72% 30.15 in 10.0 mi East 13.8 mph 24.2 mph N/A   Mostly Cloudy
10:17 AM 73.4 °F 62.6 °F 69% 30.15 in 10.0 mi ENE 12.7 mph 21.9 mph N/A   Light Drizzle
10:27 AM 73.4 °F 62.6 °F 69% 30.15 in 10.0 mi East 12.7 mph 21.9 mph N/A   Mostly Cloudy
10:55 AM 73.4 °F 62.2 °F 68% 30.14 in 10.0 mi East 6.9 mph 16.1 mph 0.00 in   Overcast
11:05 AM 71.6 °F 62.6 °F 73% 30.15 in 10.0 mi ENE 13.8 mph 20.7 mph N/A   Light Drizzle
11:14 AM 71.6 °F 62.6 °F 73% 30.15 in 10.0 mi East 17.3 mph 23.0 mph N/A   Mostly Cloudy
11:55 AM 74.3 °F 60.3 °F 61% 30.13 in 10.0 mi East 20.7 mph 26.5 mph 0.00 in   Scattered Clouds
12:55 PM 74.1 °F 61.3 °F 64% 30.10 in 10.0 mi East 10.4 mph 17.3 mph N/A   Mostly Cloudy
1:05 PM 73.4 °F 62.6 °F 69% 30.10 in 10.0 mi ESE 13.8 mph 20.7 mph N/A   Overcast
1:13 PM 73.4 °F 62.6 °F 69% 30.10 in 10.0 mi ENE 13.8 mph 21.9 mph N/A   Mostly Cloudy
1:14 PM 73.4 °F 62.6 °F 69% 30.09 in 10.0 mi ENE 12.7 mph 21.9 mph N/A   Mostly Cloudy
1:25 PM 75.2 °F 62.6 °F 65% 30.09 in 10.0 mi East 15.0 mph 20.7 mph N/A   Mostly Cloudy
1:55 PM 75.7 °F 61.0 °F 60% 30.08 in 10.0 mi ESE 11.5 mph 21.9 mph N/A   Scattered Clouds
2:55 PM 75.6 °F 61.0 °F 60% 30.06 in 10.0 mi ESE 12.7 mph 21.9 mph N/A   Mostly Cloudy
3:55 PM 74.1 °F 61.2 °F 64% 30.05 in 10.0 mi East 13.8 mph 19.6 mph N/A   Mostly Cloudy
4:33 PM 73.4 °F 60.8 °F 65% 30.06 in 10.0 mi East 16.1 mph 21.9 mph N/A   Light Drizzle
4:42 PM 73.4 °F 60.8 °F 65% 30.06 in 10.0 mi East 15.0 mph 21.9 mph N/A   Mostly Cloudy
4:55 PM 72.9 °F 60.6 °F 65% 30.06 in 10.0 mi East 17.3 mph 27.6 mph 0.00 in   Scattered Clouds
5:43 PM 71.6 °F 62.6 °F 73% 30.08 in 8.0 mi ENE 12.7 mph - N/A   Light Drizzle
5:50 PM 69.8 °F 62.6 °F 78% 30.08 in 8.0 mi ENE 15.0 mph - N/A   Mostly Cloudy
5:55 PM 70.3 °F 61.7 °F 74% 30.08 in 10.0 mi ENE 13.8 mph - 0.00 in   Scattered Clouds
6:55 PM 70.3 °F 60.8 °F 72% 30.09 in 10.0 mi East 10.4 mph 20.7 mph N/A   Partly Cloudy
7:55 PM 70.7 °F 61.0 °F 71% 30.09 in 10.0 mi East 11.5 mph 21.9 mph N/A   Scattered Clouds
8:48 PM 69.8 °F 62.6 °F 78% 30.11 in 9.0 mi ENE 3.5 mph - N/A   Light Drizzle
8:55 PM 69.6 °F 62.1 °F 77% 30.11 in 9.0 mi Calm Calm - 0.00 in   Light Drizzle
8:56 PM 69.8 °F 62.6 °F 78% 30.12 in 9.0 mi Calm Calm - N/A   Light Drizzle
8:58 PM 69.8 °F 62.6 °F 78% 30.11 in 9.0 mi Calm Calm - N/A   Light Drizzle
9:07 PM 69.8 °F 62.6 °F 78% 30.11 in 10.0 mi East 12.7 mph - N/A   Scattered Clouds
9:18 PM 69.8 °F 62.6 °F 78% 30.12 in 10.0 mi ENE 8.1 mph 19.6 mph N/A Rain Light Rain
9:21 PM 69.8 °F 62.6 °F 78% 30.12 in 7.0 mi East 8.1 mph - N/A Rain Light Rain
9:27 PM 69.8 °F 62.6 °F 78% 30.12 in 7.0 mi East 5.8 mph - N/A Rain Light Rain
9:33 PM 68.0 °F 62.6 °F 83% 30.12 in 10.0 mi East 9.2 mph - N/A   Mostly Cloudy
9:44 PM 68.0 °F 62.6 °F 83% 30.12 in 10.0 mi East 10.4 mph - N/A   Light Drizzle
9:48 PM 69.8 °F 62.6 °F 78% 30.12 in 10.0 mi East 11.5 mph 19.6 mph N/A   Mostly Cloudy
9:55 PM 69.6 °F 62.8 °F 79% 30.12 in 10.0 mi East 11.5 mph 19.6 mph 0.00 in   Mostly Cloudy
10:31 PM 69.8 °F 62.6 °F 78% 30.12 in 9.0 mi ENE 10.4 mph 19.6 mph N/A Rain Light Rain
10:41 PM 69.8 °F 62.6 °F 78% 30.12 in 10.0 mi ENE 8.1 mph - N/A   Mostly Cloudy
10:55 PM 70.2 °F 62.4 °F 76% 30.11 in 10.0 mi East 10.4 mph 21.9 mph 0.00 in   Mostly Cloudy
11:08 PM 69.8 °F 62.6 °F 78% 30.11 in 10.0 mi East 11.5 mph - N/A   Mostly Cloudy
11:17 PM 69.8 °F 62.6 °F 78% 30.11 in 10.0 mi East 12.7 mph 19.6 mph N/A   Mostly Cloudy
11:22 PM 69.8 °F 62.6 °F 78% 30.11 in 10.0 mi East 6.9 mph 19.6 mph N/A   Mostly Cloudy
11:41 PM 69.8 °F 62.6 °F 78% 30.11 in 10.0 mi ENE 8.1 mph - N/A Rain Light Rain
11:50 PM 69.8 °F 62.6 °F 78% 30.11 in 10.0 mi East 6.9 mph - N/A   Mostly Cloudy
11:55 PM 69.6 °F 63.3 °F 80% 30.10 in 10.0 mi East 12.7 mph 18.4 mph 0.00 in   Mostly Cloudy
11:58 PM 69.8 °F 62.6 °F 78% 30.11 in 9.0 mi East 12.7 mph 18.4 mph N/A   Light Drizzle